| time (UTC) | temp F | wind direction | speed MPH | gust MPH | rain 1hr in | rain 24hr in | rain mn in | humidity % | barometer mb |
| 20260503180345 | 59 | 256 | 1.0 | 7.0 | 0.00 | 0.00 | 0.10 | 69 | 1014.9 |
| 20260503175845 | 59 | 255 | 2.0 | 8.0 | 0.00 | 0.00 | 0.10 | 68 | 1014.9 |
| 20260503175346 | 59 | 261 | 2.0 | 6.0 | 0.00 | 0.00 | 0.10 | 68 | 1014.6 |
| 20260503174846 | 59 | 221 | 3.0 | 7.0 | 0.00 | 0.00 | 0.10 | 69 | 1014.9 |
| 20260503174345 | 59 | 284 | 3.0 | 6.0 | 0.00 | 0.00 | 0.10 | 72 | 1014.9 |
| 20260503173845 | 59 | 249 | 5.0 | 9.0 | 0.00 | 0.00 | 0.10 | 73 | 1014.9 |
| 20260503173346 | 59 | 237 | 3.0 | 3.0 | 0.00 | 0.00 | 0.10 | 72 | 1014.9 |
| 20260503172845 | 59 | 268 | 3.0 | 10.0 | 0.00 | 0.00 | 0.10 | 72 | 1014.9 |
| 20260503172346 | 59 | 226 | 2.0 | 6.0 | 0.00 | 0.00 | 0.10 | 74 | 1014.9 |
| 20260503171847 | 59 | 226 | 3.0 | 5.0 | 0.00 | 0.00 | 0.10 | 74 | 1014.9 |
| 20260503171345 | 59 | 179 | 5.0 | 7.0 | 0.00 | 0.00 | 0.10 | 73 | 1014.6 |
| 20260503170846 | 60 | 229 | 6.0 | 9.0 | 0.00 | 0.00 | 0.10 | 72 | 1014.9 |
| 20260503170345 | 60 | 210 | 5.0 | 9.0 | 0.00 | 0.00 | 0.10 | 71 | 1014.9 |
| 20260503150846 | 60 | 260 | 5.0 | 7.0 | 0.00 | 0.00 | 0.10 | 69 | 1014.9 |
| 20260503150346 | 60 | 237 | 5.0 | 6.0 | 0.00 | 0.00 | 0.10 | 68 | 1014.9 |
| 20260503131346 | 59 | 276 | 5.0 | 8.0 | 0.02 | 0.00 | 0.10 | 69 | 1015.2 |
| 20260503130846 | 58 | 221 | 4.0 | 10.0 | 0.02 | 0.00 | 0.10 | 73 | 1015.2 |
| 20260503130345 | 59 | 285 | 4.0 | 5.0 | 0.02 | 0.00 | 0.10 | 77 | 1015.2 |
| 20260503110345 | 58 | 265 | 3.0 | 6.0 | 0.00 | 0.00 | 0.08 | 76 | 1014.9 |
| 20260503090346 | 59 | 279 | 4.0 | 9.0 | 0.00 | 0.00 | 0.08 | 77 | 1013.9 |
| 20260503081345 | 60 | 329 | 5.0 | 10.0 | 0.00 | 0.00 | 0.07 | 73 | 1013.2 |
| 20260503080846 | 60 | 316 | 3.0 | 9.0 | 0.00 | 0.00 | 0.07 | 71 | 1013.2 |
| 20260503080345 | 60 | 227 | 5.0 | 10.0 | 0.00 | 0.00 | 0.07 | 71 | 1013.2 |
| 20260503072845 | 62 | 294 | 4.0 | 8.0 | 0.00 | 0.00 | 0.07 | 67 | 1013.2 |
| 20260503072345 | 63 | 285 | 5.0 | 9.0 | 0.00 | 0.00 | 0.07 | 64 | 1012.9 |
| 20260503071846 | 63 | 350 | 6.0 | 8.0 | 0.00 | 0.00 | 0.07 | 63 | 1013.2 |
| 20260503071345 | 63 | 258 | 7.0 | 11.0 | 0.00 | 0.00 | 0.07 | 61 | 1013.2 |
| 20260503070845 | 64 | 269 | 5.0 | 9.0 | 0.00 | 0.00 | 0.07 | 61 | 1012.9 |
| 20260503070346 | 63 | 310 | 5.0 | 11.0 | 0.00 | 0.00 | 0.07 | 63 | 1012.9 |
| 20260503054845 | 65 | 272 | 5.0 | 10.0 | 0.00 | 0.00 | 0.07 | 62 | 1012.5 |
| 20260503054345 | 66 | 279 | 7.0 | 13.0 | 0.00 | 0.00 | 0.07 | 61 | 1012.5 |
| 20260503053846 | 65 | 259 | 6.0 | 9.0 | 0.00 | 0.00 | 0.07 | 65 | 1012.5 |
| 20260503053345 | 65 | 269 | 9.0 | 14.0 | 0.00 | 0.00 | 0.07 | 64 | 1012.5 |
| 20260503052400 | 65 | 275 | 6.0 | 9.0 | 0.00 | 0.00 | 0.07 | 62 | 1012.5 |
| 20260503051845 | 66 | 241 | 9.0 | 13.0 | 0.00 | 0.00 | 0.07 | 65 | 1012.5 |
| 20260503051345 | 66 | 255 | 7.0 | 15.0 | 0.00 | 0.00 | 0.07 | 55 | 1012.5 |
| 20260503050845 | 65 | 314 | 7.0 | 14.0 | 0.00 | 0.00 | 0.07 | 59 | 1012.5 |
| 20260503050345 | 64 | 304 | 9.0 | 15.0 | 0.00 | 0.00 | 0.07 | 61 | 1012.2 |
| 20260503045846 | 63 | 329 | 5.0 | 17.0 | 0.00 | 0.00 | 0.07 | 62 | 1012.5 |
| 20260503045346 | 65 | 288 | 7.0 | 16.0 | 0.00 | 0.00 | 0.07 | 60 | 1012.5 |
| 20260503044846 | 66 | 272 | 7.0 | 16.0 | 0.00 | 0.00 | 0.07 | 59 | 1012.5 |
| 20260503044345 | 66 | 249 | 10.0 | 15.0 | 0.00 | 0.00 | 0.07 | 58 | 1012.5 |
| 20260503043845 | 66 | 261 | 8.0 | 16.0 | 0.00 | 0.00 | 0.07 | 61 | 1012.5 |
| 20260503043346 | 66 | 225 | 8.0 | 18.0 | 0.00 | 0.00 | 0.07 | 58 | 1012.5 |
| 20260503042845 | 66 | 301 | 9.0 | 16.0 | 0.00 | 0.00 | 0.07 | 61 | 1012.5 |
| 20260503042345 | 65 | 291 | 10.0 | 14.0 | 0.01 | 0.00 | 0.07 | 60 | 1012.2 |
| 20260503041846 | 65 | 296 | 9.0 | 11.0 | 0.02 | 0.00 | 0.07 | 60 | 1012.2 |
| 20260503041345 | 65 | 255 | 11.0 | 15.0 | 0.02 | 0.00 | 0.07 | 62 | 1012.9 |
| 20260503040845 | 65 | 301 | 7.0 | 16.0 | 0.02 | 0.00 | 0.07 | 65 | 1012.5 |
| 20260503040346 | 65 | 271 | 5.0 | 14.0 | 0.02 | 0.00 | 0.07 | 69 | 1012.5 |
| 20260503035845 | 64 | 323 | 7.0 | 13.0 | 0.02 | 0.00 | 0.07 | 69 | 1012.5 |
| 20260503035345 | 64 | 290 | 9.0 | 17.0 | 0.02 | 0.00 | 0.07 | 69 | 1012.5 |
| 20260503034845 | 64 | 248 | 4.0 | 9.0 | 0.02 | 0.00 | 0.07 | 74 | 1012.5 |
| 20260503034345 | 62 | 296 | 5.0 | 9.0 | 0.02 | 0.00 | 0.07 | 76 | 1012.5 |
| 20260503033845 | 60 | 308 | 5.0 | 11.0 | 0.02 | 0.00 | 0.07 | 79 | 1012.9 |
| 20260503033346 | 60 | 241 | 7.0 | 10.0 | 0.02 | 0.00 | 0.07 | 80 | 1012.9 |
| 20260503032845 | 60 | 323 | 4.0 | 13.0 | 0.02 | 0.00 | 0.07 | 81 | 1013.2 |
| 20260503032347 | 60 | 280 | 4.0 | 7.0 | 0.01 | 0.00 | 0.07 | 83 | 1013.2 |
| 20260503031845 | 64 | 322 | 11.0 | 17.0 | 0.00 | 0.00 | 0.05 | 68 | 1013.2 |
| 20260503031346 | 65 | 295 | 4.0 | 13.0 | 0.00 | 0.00 | 0.05 | 67 | 1012.9 |
| 20260503030845 | 65 | 275 | 6.0 | 9.0 | 0.00 | 0.00 | 0.05 | 70 | 1013.2 |
| 20260503030346 | 63 | 265 | 7.0 | 10.0 | 0.00 | 0.00 | 0.05 | 72 | 1013.2 |
| 20260503025846 | 62 | 270 | 6.0 | 9.0 | 0.00 | 0.00 | 0.05 | 75 | 1013.2 |
| 20260503025345 | 61 | 261 | 5.0 | 10.0 | 0.00 | 0.00 | 0.05 | 77 | 1013.2 |
| 20260503024845 | 61 | 295 | 5.0 | 7.0 | 0.00 | 0.00 | 0.05 | 80 | 1013.5 |
| 20260503024345 | 61 | 236 | 6.0 | 13.0 | 0.00 | 0.00 | 0.05 | 75 | 1013.5 |
| 20260503023846 | 61 | 259 | 9.0 | 15.0 | 0.00 | 0.00 | 0.05 | 73 | 1013.5 |
| 20260503023345 | 63 | 338 | 9.0 | 13.0 | 0.00 | 0.00 | 0.05 | 73 | 1013.2 |
| 20260503022846 | 66 | 276 | 9.0 | 13.0 | 0.00 | 0.00 | 0.05 | 61 | 1013.2 |
| 20260503022346 | 66 | 325 | 7.0 | 13.0 | 0.01 | 0.00 | 0.05 | 61 | 1013.2 |
| 20260503021845 | 68 | 316 | 6.0 | 14.0 | 0.01 | 0.00 | 0.05 | 59 | 1013.2 |
| 20260503021348 | 66 | 301 | 8.0 | 14.0 | 0.01 | 0.00 | 0.05 | 59 | 1013.2 |
| 20260503020848 | 66 | 304 | 9.0 | 14.0 | 0.01 | 0.00 | 0.05 | 59 | 1013.2 |
| 20260503020346 | 66 | 253 | 10.0 | 14.0 | 0.01 | 0.00 | 0.05 | 59 | 1013.2 |
| 20260503015845 | 66 | 304 | 5.0 | 10.0 | 0.01 | 0.00 | 0.05 | 63 | 1013.2 |
| 20260503015345 | 66 | 287 | 9.0 | 14.0 | 0.01 | 0.00 | 0.05 | 60 | 1013.2 |
| 20260503014845 | 65 | 260 | 7.0 | 11.0 | 0.01 | 0.00 | 0.05 | 64 | 1013.2 |
| 20260503014345 | 64 | 299 | 8.0 | 13.0 | 0.01 | 0.00 | 0.05 | 66 | 1013.5 |
| 20260503013845 | 66 | 310 | 7.0 | 16.0 | 0.01 | 0.00 | 0.05 | 66 | 1013.2 |
| 20260503013346 | 65 | 295 | 9.0 | 13.0 | 0.01 | 0.00 | 0.05 | 66 | 1013.2 |
| 20260503012851 | 66 | 324 | 11.0 | 14.0 | 0.00 | 0.00 | 0.05 | 65 | 1013.2 |
| 20260503012346 | 65 | 311 | 12.0 | 15.0 | 0.00 | 0.00 | 0.05 | 66 | 1013.2 |
| 20260503011845 | 66 | 334 | 9.0 | 15.0 | 0.00 | 0.00 | 0.04 | 66 | 1013.2 |
| 20260503011345 | 65 | 346 | 2.0 | 10.0 | 0.00 | 0.00 | 0.04 | 68 | 1013.2 |
| 20260503010400 | 64 | 325 | 4.0 | 14.0 | 0.00 | 0.00 | 0.04 | 67 | 1013.2 |
| 20260503005846 | 64 | 280 | 4.0 | 15.0 | 0.00 | 0.00 | 0.04 | 68 | 1013.2 |
| 20260503005346 | 63 | 324 | 8.0 | 11.0 | 0.00 | 0.00 | 0.04 | 70 | 1013.5 |
| 20260503004845 | 64 | 244 | 8.0 | 14.0 | 0.00 | 0.00 | 0.04 | 71 | 1013.2 |
| 20260503004345 | 63 | 309 | 5.0 | 10.0 | 0.02 | 0.00 | 0.04 | 70 | 1013.2 |
| 20260503003846 | 62 | 299 | 6.0 | 9.0 | 0.04 | 0.00 | 0.04 | 70 | 1013.2 |
| 20260503003345 | 62 | 318 | 6.0 | 13.0 | 0.04 | 0.00 | 0.04 | 69 | 1013.2 |
| 20260503002845 | 63 | 283 | 6.0 | 15.0 | 0.04 | 0.00 | 0.04 | 69 | 1013.2 |
| 20260503002347 | 62 | 296 | 8.0 | 11.0 | 0.04 | 0.00 | 0.04 | 69 | 1013.2 |
| 20260503001845 | 61 | 315 | 4.0 | 8.0 | 0.04 | 0.00 | 0.04 | 75 | 1013.2 |
| 20260503001346 | 60 | 300 | 4.0 | 6.0 | 0.04 | 0.00 | 0.04 | 78 | 1013.2 |
| 20260503000845 | 59 | 254 | 7.0 | 14.0 | 0.04 | 0.00 | 0.04 | 79 | 1013.2 |
| 20260503000345 | 58 | 304 | 5.0 | 8.0 | 0.04 | 0.00 | 0.04 | 80 | 1013.2 |
| 20260502235846 | 58 | 272 | 8.0 | 10.0 | 0.04 | 0.00 | 0.04 | 80 | 1013.2 |
| 20260502235346 | 59 | 325 | 9.0 | 15.0 | 0.04 | 0.00 | 0.04 | 78 | 1013.2 |
| 20260502234847 | 59 | 302 | 8.0 | 9.0 | 0.04 | 0.00 | 0.04 | 78 | 1012.9 |
| 20260502234346 | 59 | 331 | 4.0 | 9.0 | 0.02 | 0.00 | 0.04 | 78 | 1012.9 |
| 20260502233845 | 62 | 324 | 8.0 | 14.0 | 0.00 | 0.00 | 0.03 | 71 | 1012.9 |
| 20260502233345 | 63 | 289 | 6.0 | 14.0 | 0.00 | 0.00 | 0.00 | 64 | 1012.9 |
| 20260502232845 | 63 | 270 | 7.0 | 11.0 | 0.00 | 0.00 | 0.43 | 64 | 1012.9 |
| 20260502232346 | 62 | 282 | 7.0 | 14.0 | 0.00 | 0.00 | 0.43 | 65 | 1012.9 |
| 20260502231846 | 61 | 275 | 3.0 | 8.0 | 0.00 | 0.00 | 0.43 | 66 | 1012.9 |
| 20260502231345 | 62 | 300 | 6.0 | 9.0 | 0.00 | 0.00 | 0.43 | 65 | 1012.9 |
| 20260502230845 | 62 | 308 | 5.0 | 10.0 | 0.00 | 0.00 | 0.43 | 66 | 1012.9 |
| 20260502230345 | 61 | 325 | 5.0 | 13.0 | 0.00 | 0.00 | 0.43 | 67 | 1012.9 |
| 20260502225845 | 60 | 311 | 5.0 | 8.0 | 0.00 | 0.00 | 0.43 | 68 | 1012.5 |
| 20260502225346 | 60 | 297 | 3.0 | 7.0 | 0.00 | 0.00 | 0.43 | 67 | 1012.9 |
| 20260502224845 | 60 | 287 | 3.0 | 9.0 | 0.00 | 0.00 | 0.43 | 66 | 1012.5 |
| 20260502224346 | 61 | 325 | 5.0 | 10.0 | 0.00 | 0.00 | 0.43 | 68 | 1012.5 |
| 20260502223845 | 61 | 281 | 9.0 | 11.0 | 0.00 | 0.00 | 0.43 | 65 | 1012.5 |
| 20260502223345 | 61 | 275 | 2.0 | 10.0 | 0.00 | 0.00 | 0.43 | 68 | 1012.5 |
| 20260502222845 | 60 | 329 | 6.0 | 9.0 | 0.00 | 0.00 | 0.43 | 69 | 1012.5 |
| 20260502222345 | 59 | 287 | 4.0 | 6.0 | 0.00 | 0.00 | 0.43 | 70 | 1012.5 |
| 20260502221845 | 59 | 332 | 3.0 | 8.0 | 0.00 | 0.00 | 0.43 | 69 | 1012.2 |
| 20260502221346 | 59 | 260 | 4.0 | 7.0 | 0.00 | 0.00 | 0.43 | 70 | 1012.2 |
| 20260502220845 | 58 | 311 | 3.0 | 7.0 | 0.00 | 0.00 | 0.43 | 73 | 1012.2 |
| 20260502220345 | 57 | 313 | 4.0 | 8.0 | 0.00 | 0.00 | 0.43 | 74 | 1012.2 |
| 20260502215846 | 57 | 279 | 4.0 | 6.0 | 0.00 | 0.00 | 0.43 | 78 | 1011.9 |
| 20260502215345 | 57 | 312 | 3.0 | 5.0 | 0.00 | 0.00 | 0.43 | 81 | 1012.2 |
| 20260502214845 | 57 | 326 | 2.0 | 5.0 | 0.00 | 0.00 | 0.43 | 80 | 1011.9 |
| 20260502214345 | 58 | 300 | 2.0 | 7.0 | 0.00 | 0.00 | 0.43 | 77 | 1011.9 |
| 20260502213846 | 58 | 270 | 5.0 | 6.0 | 0.00 | 0.00 | 0.43 | 73 | 1011.9 |
| 20260502213346 | 58 | 287 | 3.0 | 6.0 | 0.00 | 0.00 | 0.43 | 74 | 1011.9 |
| 20260502212845 | 58 | 272 | 2.0 | 6.0 | 0.00 | 0.00 | 0.43 | 73 | 1011.9 |
| 20260502212345 | 58 | 254 | 4.0 | 8.0 | 0.00 | 0.00 | 0.43 | 72 | 1011.9 |
| 20260502211845 | 58 | 249 | 5.0 | 7.0 | 0.00 | 0.00 | 0.43 | 70 | 1011.9 |
| 20260502211345 | 58 | 324 | 3.0 | 7.0 | 0.00 | 0.00 | 0.43 | 71 | 1011.9 |
| 20260502210846 | 59 | 276 | 3.0 | 8.0 | 0.00 | 0.00 | 0.43 | 72 | 1011.9 |
| 20260502210345 | 59 | 310 | 5.0 | 9.0 | 0.00 | 0.00 | 0.43 | 70 | 1011.9 |
| 20260502205845 | 59 | 255 | 3.0 | 7.0 | 0.00 | 0.00 | 0.43 | 70 | 1011.9 |
| 20260502205345 | 59 | 262 | 4.0 | 13.0 | 0.00 | 0.00 | 0.43 | 70 | 1011.9 |
| 20260502204845 | 59 | 323 | 1.0 | 7.0 | 0.00 | 0.00 | 0.43 | 71 | 1011.9 |
| 20260502204347 | 59 | 309 | 5.0 | 8.0 | 0.00 | 0.00 | 0.43 | 71 | 1011.9 |
| 20260502203846 | 59 | 323 | 5.0 | 10.0 | 0.00 | 0.00 | 0.43 | 72 | 1011.9 |
| 20260502203345 | 59 | 324 | 11.0 | 16.0 | 0.00 | 0.00 | 0.43 | 73 | 1011.9 |
| 20260502202845 | 59 | 334 | 11.0 | 20.0 | 0.00 | 0.00 | 0.43 | 71 | 1011.5 |
| 20260502202345 | 59 | 317 | 5.0 | 7.0 | 0.00 | 0.00 | 0.43 | 68 | 1011.9 |
| 20260502201845 | 59 | 296 | 5.0 | 9.0 | 0.00 | 0.00 | 0.43 | 67 | 1011.5 |
| 20260502201345 | 58 | 295 | 5.0 | 8.0 | 0.00 | 0.00 | 0.43 | 68 | 1011.5 |
| 20260502200845 | 58 | 310 | 4.0 | 6.0 | 0.00 | 0.00 | 0.43 | 67 | 1011.5 |
| 20260502200346 | 58 | 322 | 3.0 | 8.0 | 0.00 | 0.00 | 0.43 | 67 | 1011.5 |
| 20260502195846 | 58 | 281 | 4.0 | 7.0 | 0.00 | 0.00 | 0.43 | 69 | 1011.5 |
| 20260502195345 | 57 | 332 | 2.0 | 7.0 | 0.00 | 0.00 | 0.43 | 71 | 1011.9 |
| 20260502194846 | 57 | 295 | 4.0 | 6.0 | 0.00 | 0.00 | 0.43 | 70 | 1011.9 |
| 20260502194345 | 58 | 315 | 5.0 | 9.0 | 0.00 | 0.00 | 0.43 | 68 | 1011.9 |
| 20260502193846 | 58 | 294 | 8.0 | 15.0 | 0.00 | 0.00 | 0.43 | 66 | 1011.9 |
| 20260502193345 | 58 | 279 | 7.0 | 14.0 | 0.00 | 0.00 | 0.43 | 67 | 1011.9 |
| 20260502192845 | 58 | 293 | 6.0 | 8.0 | 0.00 | 0.00 | 0.43 | 67 | 1011.9 |
| 20260502192345 | 58 | 268 | 5.0 | 9.0 | 0.00 | 0.00 | 0.43 | 68 | 1011.9 |
| 20260502191845 | 58 | 292 | 5.0 | 6.0 | 0.00 | 0.00 | 0.43 | 67 | 1011.5 |
| 20260502191345 | 58 | 257 | 7.0 | 15.0 | 0.00 | 0.00 | 0.43 | 65 | 1011.5 |
| 20260502190846 | 58 | 300 | 4.0 | 7.0 | 0.00 | 0.00 | 0.43 | 67 | 1011.5 |
| 20260502190345 | 58 | 330 | 5.0 | 11.0 | 0.00 | 0.00 | 0.43 | 67 | 1011.5 |
| 20260502185847 | 59 | 312 | 7.0 | 13.0 | 0.00 | 0.00 | 0.43 | 67 | 1011.5 |
| 20260502185346 | 59 | 315 | 6.0 | 9.0 | 0.00 | 0.00 | 0.43 | 66 | 1011.5 |
| 20260502184845 | 58 | 293 | 4.0 | 10.0 | 0.00 | 0.00 | 0.43 | 64 | 1011.5 |
| 20260502184346 | 58 | 306 | 5.0 | 8.0 | 0.00 | 0.00 | 0.43 | 63 | 1011.5 |
| 20260502183845 | 58 | 277 | 6.0 | 9.0 | 0.00 | 0.00 | 0.43 | 62 | 1011.2 |
| 20260502183346 | 58 | 322 | 5.0 | 7.0 | 0.00 | 0.00 | 0.43 | 63 | 1011.5 |
| 20260502182845 | 58 | 291 | 3.0 | 8.0 | 0.00 | 0.00 | 0.43 | 62 | 1011.2 |
| 20260502182345 | 58 | 323 | 4.0 | 8.0 | 0.00 | 0.00 | 0.43 | 60 | 1011.5 |
| 20260502181845 | 58 | 276 | 8.0 | 10.0 | 0.00 | 0.00 | 0.43 | 60 | 1011.5 |
| 20260502181345 | 58 | 272 | 7.0 | 8.0 | 0.00 | 0.00 | 0.43 | 65 | 1011.5 |
| 20260502180846 | 58 | 280 | 8.0 | 10.0 | 0.00 | 0.00 | 0.43 | 63 | 1011.5 |